Date String (YYYY-MM-DD hh:mm:ss) UTC,Instrument flags,Ambient pressure (hPa),Sample flow (lpm),Bypass flow (lpm),Sample temperature (°C),Ambient temperature (°C),ASC tube jacket temperature (°C),LED temperature (°C),Box temperature (°C),Sample RH (%),Span deviation,Mass concentration (μg/m³),Mass concentration (μg/m³),Mass concentration (μg/m³)
DateTimeUTC,F1_M11,P_M11,Q1_M11,Q2_M11,T1_M11,T2_M11,T3_M11,T4_M11,T5_M11,U1_M11,ZSPAN_M11,X0_M11,X2_M11,X1_M11
2022-03-21 09:00:00,,0818.7,5.00,0.00,26.8,25.9,00.0,35.9,28.5,11.8,0000.0,0010.93,0004.20,0002.58
2022-03-21 09:01:00,,0818.8,5.01,0.00,26.8,25.9,00.0,35.9,28.5,11.9,0000.0,0011.41,0004.19,0002.57
2022-03-21 09:02:00,,0818.8,4.99,0.00,26.8,25.8,00.0,35.9,28.5,11.8,0000.0,0011.58,0004.21,0002.57
2022-03-21 09:03:00,,0818.8,5.00,0.00,26.8,25.8,00.0,35.8,28.5,11.8,0000.0,0011.47,0004.18,0002.57
2022-03-21 09:04:00,,0818.8,4.99,0.00,26.8,25.8,00.0,35.8,28.5,11.8,0000.0,0011.09,0004.20,0002.56
2022-03-21 09:05:00,,0818.8,5.00,0.00,26.8,25.9,00.0,35.8,28.6,11.8,0000.0,0010.78,0004.20,0002.55
2022-03-21 09:06:00,,0818.8,5.01,0.00,26.8,25.9,00.0,35.8,28.6,11.9,0000.0,0010.61,0004.26,0002.57
2022-03-21 09:07:00,,0818.8,5.00,0.00,26.8,25.9,00.0,35.8,28.5,11.9,0000.0,0010.71,0004.31,0002.57
2022-03-21 09:08:00,,0818.9,5.00,0.00,26.8,25.9,00.0,35.8,28.5,11.9,0000.0,0010.61,0004.26,0002.57
2022-03-21 09:09:00,,0819.0,4.99,0.00,26.8,25.9,00.0,35.8,28.5,12.1,0000.0,0010.52,0004.30,0002.59
2022-03-21 09:10:00,,0818.9,5.00,0.00,26.8,25.9,00.0,35.8,28.5,12.1,0000.0,0010.51,0004.35,0002.63
2022-03-21 09:11:00,,0818.9,5.00,0.00,26.8,25.9,00.0,35.8,28.5,12.1,0000.0,0010.32,0004.40,0002.67
2022-03-21 09:12:00,,0818.9,4.99,0.00,26.8,25.9,00.0,35.8,28.5,12.1,0000.0,0009.68,0004.44,0002.70
2022-03-21 09:13:00,,0818.9,5.00,0.00,26.8,25.8,00.0,35.8,28.5,12.1,0000.0,0009.60,0004.46,0002.74
2022-03-21 09:14:00,,0818.9,5.01,0.00,26.8,25.8,00.0,35.8,28.5,12.1,0000.0,0009.75,0004.47,0002.75
2022-03-21 09:15:00,,0819.0,5.01,0.00,26.8,25.8,00.0,35.8,28.5,12.2,0000.0,0009.90,0004.47,0002.79
2022-03-21 09:16:00,,0818.9,5.00,0.00,26.8,25.8,00.0,35.8,28.5,12.2,0000.0,0010.18,0004.51,0002.84
2022-03-21 09:17:00,,0818.9,4.99,0.00,26.8,25.8,00.0,35.8,28.5,12.2,0000.0,0010.34,0004.52,0002.86
2022-03-21 09:18:00,,0819.0,5.00,0.00,26.8,25.7,00.0,35.8,28.5,12.3,0000.0,0010.90,0004.47,0002.87
2022-03-21 09:19:00,,0819.1,5.01,0.00,26.7,25.7,00.0,35.8,28.5,12.3,0000.0,0011.47,0004.48,0002.88
2022-03-21 09:20:00,,0819.1,5.00,0.00,26.7,25.8,00.0,35.8,28.4,12.3,0000.0,0011.53,0004.46,0002.89
2022-03-21 09:21:00,,0819.2,5.00,0.00,26.7,25.8,00.0,35.8,28.4,12.4,0000.0,0011.42,0004.42,0002.89
2022-03-21 09:22:00,,0819.2,4.99,0.00,26.7,25.8,00.0,35.8,28.4,12.4,0000.0,0011.37,0004.41,0002.91
2022-03-21 09:23:00,,0819.2,5.00,0.00,26.7,25.8,00.0,35.8,28.4,12.4,0000.0,0011.27,0004.40,0002.94
2022-03-21 09:24:00,,0819.2,5.01,0.00,26.7,25.8,00.0,35.8,28.5,12.5,0000.0,0011.14,0004.38,0002.95
2022-03-21 09:25:00,,0819.2,5.00,0.00,26.7,25.8,00.0,35.8,28.5,12.5,0000.0,0011.03,0004.40,0002.97
2022-03-21 09:26:00,,0819.2,5.00,0.00,26.7,25.8,00.0,35.7,28.5,12.5,0000.0,0010.87,0004.43,0002.97
2022-03-21 09:27:00,,0819.3,5.00,0.00,26.7,25.8,00.0,35.7,28.5,12.5,0000.0,0010.69,0004.45,0002.97
2022-03-21 09:28:00,,0819.2,5.00,0.00,26.7,25.8,00.0,35.7,28.5,12.4,0000.0,0010.73,0004.43,0002.96
2022-03-21 09:29:00,,0819.2,5.00,0.00,26.7,25.8,00.0,35.7,28.4,12.4,0000.0,0010.34,0004.47,0002.96
2022-03-21 09:30:00,,0819.2,5.00,0.00,26.7,25.8,00.0,35.7,28.4,12.4,0000.0,0009.88,0004.47,0002.96
2022-03-21 09:31:00,,0819.2,5.01,0.00,26.7,25.8,00.0,35.7,28.4,12.5,0000.0,0010.35,0004.49,0002.97
2022-03-21 09:32:00,,0819.2,4.99,0.00,26.7,25.8,00.0,35.7,28.4,12.5,0000.0,0010.40,0004.50,0002.97
2022-03-21 09:33:00,,0819.2,5.00,0.00,26.6,25.7,00.0,35.7,28.4,12.5,0000.0,0010.44,0004.49,0002.94
2022-03-21 09:34:00,,0819.1,5.00,0.00,26.6,25.7,00.0,35.7,28.4,12.5,0000.0,0010.49,0004.49,0002.94
2022-03-21 09:35:00,,0819.2,5.00,0.00,26.6,25.6,00.0,35.7,28.3,12.6,0000.0,0010.40,0004.49,0002.94
2022-03-21 09:36:00,,0819.2,5.00,0.00,26.5,25.6,00.0,35.7,28.3,12.8,0000.0,0010.21,0004.46,0002.94
2022-03-21 09:37:00,,0819.2,5.00,0.00,26.5,25.5,00.0,35.7,28.2,12.9,0000.0,0010.57,0004.45,0002.96
2022-03-21 09:38:00,,0819.3,5.00,0.00,26.5,25.5,00.0,35.6,28.1,13.1,0000.0,0011.15,0004.43,0002.99
2022-03-21 09:39:00,,0819.3,5.01,0.00,26.4,25.4,00.0,35.6,28.1,13.0,0000.0,0011.04,0004.45,0003.03
2022-03-21 09:40:00,,0819.4,5.00,0.00,26.4,25.3,00.0,35.6,28.0,13.1,0000.0,0010.76,0004.44,0003.07
2022-03-21 09:41:00,,0819.4,4.99,0.00,26.3,25.3,00.0,35.6,28.0,13.2,0000.0,0011.01,0004.47,0003.12
2022-03-21 09:42:00,,0819.4,5.00,0.00,26.3,25.2,00.0,35.5,28.0,13.2,0000.0,0010.39,0004.48,0003.14
2022-03-21 09:43:00,,0819.4,5.01,0.00,26.2,25.2,00.0,35.5,27.9,13.2,0000.0,0010.46,0004.50,0003.15
2022-03-21 09:44:00,,0819.4,5.00,0.00,26.2,25.1,00.0,35.5,27.9,13.3,0000.0,0010.44,0004.52,0003.17
2022-03-21 09:45:00,,0819.4,5.00,0.00,26.2,25.1,00.0,35.4,27.8,13.3,0000.0,0010.42,0004.57,0003.18
2022-03-21 09:46:00,,0819.4,5.00,0.00,26.1,25.1,00.0,35.4,27.8,13.4,0000.0,0010.56,0004.60,0003.19
2022-03-21 09:47:00,,0819.4,5.00,0.00,26.1,25.0,00.0,35.4,27.8,13.5,0000.0,0010.73,0004.68,0003.22
2022-03-21 09:48:00,,0819.4,5.01,0.00,26.1,25.0,00.0,35.3,27.8,13.5,0000.0,0010.65,0004.73,0003.23
2022-03-21 09:49:00,,0819.4,5.00,0.00,26.1,25.1,00.0,35.3,27.7,13.6,0000.0,0010.10,0004.80,0003.23
2022-03-21 09:50:00,,0819.5,5.00,0.00,26.0,25.0,00.0,35.3,27.7,13.6,0000.0,0010.15,0004.82,0003.24
2022-03-21 09:51:00,,0819.6,5.00,0.00,26.0,25.0,00.0,35.3,27.7,13.7,0000.0,0010.22,0004.86,0003.25
2022-03-21 09:52:00,,0819.6,4.99,0.00,26.0,25.0,00.0,35.2,27.7,13.7,0000.0,0009.95,0004.84,0003.25
2022-03-21 09:53:00,,0819.7,4.99,0.00,26.0,24.9,00.0,35.2,27.6,13.8,0000.0,0009.85,0004.81,0003.25
2022-03-21 09:54:00,,0819.7,5.00,0.00,25.9,24.9,00.0,35.2,27.6,13.8,0000.0,0010.18,0004.77,0003.26
2022-03-21 09:55:00,,0819.7,5.01,0.00,25.9,24.9,00.0,35.2,27.6,13.8,0000.0,0010.75,0004.79,0003.27
2022-03-21 09:56:00,,0819.8,5.00,0.00,25.9,24.9,00.0,35.1,27.6,13.9,0000.0,0010.82,0004.80,0003.28
2022-03-21 09:57:00,,0819.9,4.99,0.00,25.9,24.8,00.0,35.1,27.5,13.8,0000.0,0010.94,0004.82,0003.30
2022-03-21 09:58:00,,0819.9,5.01,0.00,25.8,24.8,00.0,35.1,27.5,13.8,0000.0,0011.84,0004.82,0003.30
2022-03-21 09:59:00,,0819.9,5.00,0.00,25.8,24.8,00.0,35.1,27.5,13.8,0000.0,0012.95,0004.88,0003.30
